RH
11 10 10 10 9 9 8 7 7 6 6 5 5 5 5 4 4 4 4 4 4 4 4 3 3 2 2 2 2 2 2 2 2 2 2 2 2 3 2 2 5 8 11 14 24 46 54 37 26 32 37 48 66 73 71 71 68 64 61 65 69 75 88 87 79 73 64 64 66 65 54 52 60 54 49 48 45 44 44 46 41 39 40 41 44 42 46 52
11 11 11 11 10 10 10 9 8 8 7 6 6 6 5 5 4 4 4 4 4 4 4 4 3 3 3 2 2 2 2 2 2 2 2 2 2 2 3 2 3 7 8 12 22 38 55 52 35 31 36 42 58 71 72 72 70 64 64 67 69 76 88 81 69 61 57 63 65 63 56 48 55 58 55 52 49 46 44 45 41 41 42 38 39 38 42 49
12 12 11 11 11 11 10 10 10 9 8 7 6 7 6 6 5 5 5 5 5 5 4 4 4 3 3 3 2 2 2 2 2 2 2 2 2 2 3 3 2 5 6 10 17 29 48 56 42 31 36 38 48 66 71 73 71 65 65 67 70 74 79 71 61 59 56 57 58 62 58 45 46 51 51 50 48 50 47 45 44 43 45 42 38 38 44 50
13 13 12 12 12 11 11 10 10 10 9 9 8 8 7 7 6 5 5 5 5 5 5 4 4 4 3 3 2 2 2 2 2 2 3 2 2 2 2 3 3 3 4 7 10 17 33 50 48 33 33 37 40 56 67 71 71 67 64 63 74 81 74 61 57 62 62 58 58 64 64 51 46 44 43 45 49 54 49 46 47 44 47 47 41 42 46 50
14 14 13 13 13 12 12 12 11 10 9 9 9 8 8 8 7 7 6 5 6 5 6 5 4 5 4 4 3 3 2 2 2 2 2 2 2 2 2 3 3 3 3 4 7 10 20 40 50 37 30 35 35 44 60 67 67 68 66 59 70 80 73 61 58 63 65 63 61 66 69 57 51 49 41 39 47 53 49 52 54 47 47 48 46 47 47 48
13 14 14 14 14 13 13 13 13 12 11 10 9 9 9 8 8 8 7 6 6 6 6 6 5 5 4 4 3 3 3 2 2 2 2 2 2 2 2 2 2 3 2 3 5 7 13 26 40 39 33 32 33 42 55 60 61 66 67 60 61 66 67 64 63 68 68 65 62 62 62 54 56 61 49 36 39 47 51 60 64 53 45 47 48 47 48 46
14 14 14 15 15 15 14 14 14 13 13 12 11 10 9 9 9 8 8 7 7 6 6 6 5 5 5 5 4 4 3 3 3 2 2 2 2 2 2 3 2 3 3 3 4 6 10 14 26 41 44 38 38 47 54 55 57 62 64 62 61 62 67 69 69 73 70 65 61 54 49 51 58 58 48 37 36 44 52 56 58 50 40 44 44 39 44 46
15 15 15 15 15 15 15 15 15 15 14 14 13 12 11 10 9 9 9 8 7 7 6 7 6 6 6 5 5 5 4 3 3 2 3 2 2 2 2 3 2 2 3 2 3 5 10 13 20 35 46 49 50 55 59 59 60 63 63 61 62 68 74 76 75 74 70 65 59 51 45 50 54 48 45 43 37 42 52 49 45 40 35 37 35 29 32 36
16 16 15 15 15 15 16 16 16 16 15 15 14 14 13 12 11 10 9 8 8 8 7 7 7 6 6 5 5 5 5 5 4 3 3 2 2 2 2 2 2 3 2 2 3 4 7 13 20 28 38 52 61 64 64 64 65 65 63 59 62 72 79 80 77 73 70 65 61 56 48 48 48 39 40 43 39 47 52 44 37 34 30 28 23 20 20 21
12 14 15 15 15 16 16 16 16 16 17 17 16 15 15 14 14 12 11 10 9 9 8 7 7 7 6 6 6 5 6 7 5 4 3 3 2 2 2 2 2 2 3 2 2 3 4 11 21 27 30 39 53 62 64 65 67 66 59 53 58 71 79 79 76 74 68 66 66 57 48 52 47 32 37 44 42 52 53 38 35 33 28 25 17 15 16 17
6 8 10 12 14 15 16 16 15 15 16 17 17 17 16 16 16 15 13 12 11 10 9 8 7 7 7 6 6 5 6 8 8 5 3 3 2 3 2 2 3 2 3 3 2 3 4 10 18 22 21 24 34 47 56 58 60 62 59 52 54 69 79 76 75 74 68 67 66 57 53 61 53 34 45 60 52 49 49 42 38 33 31 30 20 15 18 20
4 5 5 7 9 11 13 15 15 15 15 16 17 18 17 17 17 16 16 14 13 12 10 9 8 8 7 7 7 5 6 9 9 7 5 4 3 3 3 2 2 2 3 2 3 3 3 7 11 14 17 19 25 35 44 49 49 53 57 53 54 67 73 72 73 72 69 68 65 63 63 64 55 37 40 58 58 47 42 38 29 24 28 29 21 19 23 25
4 4 4 4 5 5 7 10 12 14 15 15 16 17 17 18 19 18 18 17 15 14 13 11 9 8 8 8 7 5 6 8 9 8 6 5 4 3 3 3 2 2 3 2 3 3 2 4 5 9 15 18 22 26 30 37 40 42 49 51 54 63 65 69 75 72 69 70 69 67 65 66 59 43 36 42 52 50 38 27 18 16 20 23 23 26 28 28
4 4 4 4 4 4 4 5 6 9 12 14 15 16 16 17 18 19 19 18 18 17 16 14 12 10 8 10 8 5 6 7 8 9 7 6 5 4 4 3 3 2 2 3 3 2 2 3 3 6 11 15 19 18 22 33 38 38 44 47 50 56 61 74 81 74 73 72 70 66 66 83 78 58 48 41 46 47 32 23 20 18 16 20 27 27 27 28
4 4 4 4 4 4 4 4 4 5 6 8 11 14 16 16 17 18 19 19 19 18 18 17 15 13 11 11 9 7 7 7 8 9 8 6 6 5 5 4 3 3 2 2 3 3 3 2 2 4 6 11 15 13 16 29 34 35 41 43 44 50 58 77 84 77 80 77 73 67 66 91 97 81 67 46 41 39 24 20 19 18 18 22 27 25 24 25
4 4 4 4 4 4 4 4 4 4 4 4 6 8 11 14 16 16 17 18 19 19 19 18 17 16 14 14 11 9 8 8 8 8 7 7 7 7 6 4 3 3 3 2 2 3 3 3 2 3 4 8 11 9 12 23 27 30 37 39 43 50 56 72 82 81 85 82 79 73 67 84 95 91 81 57 46 41 29 26 19 15 18 21 25 25 24 23
6 5 5 4 4 4 4 4 4 4 4 4 4 4 6 9 12 15 16 17 18 18 19 19 19 18 17 17 16 11 8 9 9 7 8 8 8 9 6 5 4 4 4 2 3 3 2 3 2 3 3 5 7 7 12 19 22 27 32 36 41 51 60 72 82 86 89 86 82 75 67 81 91 87 82 70 60 46 32 33 28 17 17 23 27 26 24 22
10 9 7 6 5 5 4 4 4 3 4 4 4 4 4 4 6 9 13 15 17 17 18 18 18 19 19 19 19 15 10 9 9 8 8 8 8 9 8 7 5 5 4 3 3 2 3 3 2 3 2 3 4 5 9 11 17 25 28 33 39 49 63 73 82 88 87 86 87 80 69 75 89 90 82 75 68 52 34 34 36 25 19 26 29 24 23 22
13 12 10 9 8 7 7 6 5 4 4 3 3 4 4 4 4 5 7 11 14 16 16 16 17 18 18 19 21 20 15 11 11 10 8 8 9 9 9 8 7 6 5 3 3 2 3 3 2 3 2 2 3 2 6 10 17 26 28 33 38 49 64 67 80 93 85 84 89 83 76 73 79 91 90 79 69 54 42 37 38 35 26 29 36 31 26 25
15 14 13 11 9 8 9 8 8 7 6 5 4 3 3 4 4 4 4 5 9 12 15 15 16 18 17 19 20 21 19 15 13 12 9 8 9 9 9 8 8 7 5 4 4 3 2 3 2 3 2 2 3 2 5 11 17 23 30 36 38 53 67 60 67 87 82 82 87 82 84 80 72 83 87 81 70 53 45 39 38 45 35 32 47 46 34 32
16 16 16 14 13 11 10 10 9 9 9 8 7 5 4 4 3 4 4 4 5 7 10 13 15 17 17 18 18 19 23 20 15 14 12 9 9 10 9 8 8 8 8 6 5 4 3 3 2 3 4 3 3 3 4 8 14 19 24 30 36 50 66 61 56 71 76 75 82 84 88 84 75 76 73 73 73 59 48 40 38 47 38 36 57 57 43 39
15 15 15 15 14 14 13 12 11 11 11 10 9 8 7 6 4 3 3 4 4 4 6 9 12 14 15 17 17 19 22 21 18 16 14 12 10 10 9 9 9 9 10 8 6 5 3 3 3 3 4 4 3 3 3 5 8 14 15 20 32 36 50 68 64 62 71 74 79 83 82 76 68 68 70 71 74 67 57 44 40 45 37 41 59 54 46 41
13 13 14 14 14 14 14 14 13 13 13 11 11 10 9 9 7 5 4 3 4 4 4 5 7 10 13 14 16 17 19 20 20 18 17 15 13 13 11 10 10 10 11 9 7 6 5 5 4 3 3 3 4 3 3 4 4 9 10 13 25 27 38 70 74 57 59 70 78 78 73 72 69 69 69 65 62 64 62 51 46 48 39 41 52 49 50 52
12 12 12 12 12 12 12 13 13 13 13 13 13 12 11 11 9 8 6 4 3 4 4 4 5 6 8 11 14 16 17 18 20 20 19 19 17 15 13 11 12 11 10 10 10 8 7 6 4 4 4 3 3 3 3 4 3 3 6 8 14 28 45 65 74 66 63 69 71 66 63 65 70 70 64 59 61 65 64 55 53 52 42 41 49 51 53 53
11 10 10 10 10 10 11 11 12 12 12 13 13 13 13 12 11 10 8 6 4 5 6 4 3 4 5 8 11 14 15 16 18 19 18 19 20 18 15 14 13 11 10 12 12 10 10 7 5 4 3 3 2 3 3 2 4 2 3 7 9 27 49 59 72 78 73 69 60 56 58 55 58 65 63 65 69 70 64 54 54 56 46 43 46 47 48 43
8 8 8 7 7 7 8 8 9 10 11 11 12 13 13 13 12 12 10 9 6 5 7 6 4 4 4 5 8 10 13 15 16 18 18 20 21 20 18 16 14 13 13 13 12 11 11 9 6 5 3 4 2 2 4 1 4 4 1 6 9 21 36 47 70 85 85 83 67 54 50 45 48 55 58 62 63 71 71 53 54 61 50 45 42 39 45 42
5 5 5 5 6 5 5 5 6 7 8 9 10 10 11 12 12 12 12 11 9 7 8 8 6 4 4 4 5 7 10 12 15 16 16 20 22 21 20 17 15 16 15 14 12 10 12 10 6 6 4 4 3 2 4 3 3 4 3 4 7 14 19 27 51 73 85 88 74 61 55 48 50 49 49 56 58 71 76 56 56 65 53 48 46 37 39 40
4 4 4 4 4 4 4 4 4 4 4 5 7 8 10 10 11 12 12 13 12 10 9 9 9 6 5 4 4 6 8 10 12 14 15 19 23 22 21 18 16 18 17 13 11 10 12 12 8 7 5 4 4 3 2 3 2 2 3 3 4 8 12 18 30 42 55 60 54 67 82 71 53 40 39 54 66 74 71 58 58 62 51 46 47 40 35 36
4 3 4 3 3 3 3 3 3 3 3 3 4 4 6 8 9 10 10 12 13 11 10 10 10 8 6 6 5 5 6 8 9 12 14 17 22 23 23 23 20 21 21 16 14 14 14 14 12 10 8 5 4 4 3 3 3 3 3 4 4 4 5 12 19 24 33 36 30 44 70 63 33 22 32 45 59 66 60 56 60 57 47 46 49 45 37 34
3 3 3 2 2 2 2 2 2 2 3 3 2 3 3 4 6 7 8 9 10 11 12 11 12 11 10 9 8 6 5 6 8 10 11 14 20 24 24 27 26 23 24 21 17 17 16 16 15 12 9 8 5 4 3 3 3 3 3 3 4 3 3 5 9 16 20 20 16 18 37 41 17 10 29 34 37 50 50 48 55 52 43 47 54 48 39 35
4 4 3 3 4 3 3 3 2 2 2 1 2 2 2 3 3 4 5 7 8 9 11 13 13 13 13 13 12 10 6 5 6 8 10 11 16 22 23 25 26 24 25 22 18 19 19 15 14 13 10 8 7 5 4 4 3 3 4 3 3 3 4 4 3 8 10 7 9 12 21 28 12 4 19 24 28 48 49 34 43 57 51 51 56 47 40 40
6 6 5 6 5 4 5 4 3 3 2 2 2 1 2 3 2 3 3 5 8 8 8 11 12 12 14 14 13 13 9 6 6 6 8 10 12 17 19 19 21 21 20 18 16 18 19 15 13 13 12 9 8 6 4 4 3 3 3 3 3 3 3 4 3 3 4 3 6 10 14 14 6 6 13 15 21 38 37 21 33 61 65 58 57 49 43 43
7 7 7 7 7 8 8 7 6 4 3 3 2 2 3 1 1 3 2 4 8 8 6 8 10 12 12 13 14 15 13 9 6 6 8 9 11 14 17 20 23 23 21 21 21 19 19 19 16 12 12 11 8 7 5 4 4 3 3 3 3 3 3 3 3 2 2 3 4 6 10 7 2 6 9 8 13 21 22 19 24 49 69 64 53 50 47 42
9 9 9 9 10 10 10 9 7 6 6 5 4 4 2 3 4 1 2 11 10 3 5 8 8 10 12 13 16 16 17 16 11 9 10 9 10 12 15 19 22 26 30 31 26 22 21 18 13 10 11 12 9 8 7 5 5 4 4 4 2 3 3 2 3 3 2 2 4 4 5 4 2 5 5 5 10 12 16 22 21 36 64 63 49 55 56 41
10 12 12 10 11 12 12 10 7 6 5 4 5 5 3 2 2 3 11 18 12 1 3 6 6 8 11 13 16 17 18 19 16 12 13 13 10 10 12 15 18 24 33 36 29 26 25 19 15 14 13 13 13 11 10 8 6 5 3 4 4 2 3 3 3 3 5 5 6 5 2 3 3 3 3 4 6 8 11 21 23 30 51 56 50 57 59 46
12 14 14 12 13 14 11 9 8 6 9 18 15 8 10 10 17 41 43 17 3 4 2 4 7 10 12 12 14 16 16 19 20 16 15 15 13 12 12 13 17 22 29 33 31 28 26 22 22 21 16 15 16 14 12 10 8 7 5 4 4 4 2 4 4 3 6 8 8 6 3 2 3 2 4 4 5 7 9 17 25 29 41 53 55 56 58 56
13 16 18 16 16 15 12 9 6 9 34 67 60 28 21 22 38 82 83 31 4 5 2 4 10 12 15 18 21 21 16 17 21 19 17 19 19 17 17 15 17 21 27 33 36 34 30 27 26 22 17 16 17 18 17 14 11 8 7 6 4 5 4 2 4 4 3 4 6 7 6 4 3 2 4 6 7 9 11 16 24 28 32 44 55 55 54 58
17 22 22 19 17 17 13 7 12 31 56 80 82 61 52 43 40 64 71 37 12 8 4 5 13 18 15 26 58 70 43 18 21 25 21 22 25 23 24 26 21 19 27 37 43 41 35 36 37 26 19 19 18 21 20 15 14 10 8 9 6 5 6 3 4 4 3 3 3 3 5 6 4 3 5 8 10 11 13 17 23 25 23 31 49 57 53 56
24 28 25 21 21 18 13 10 27 53 51 44 63 84 91 83 61 47 40 25 12 12 14 13 23 31 22 32 83 110 71 27 22 28 26 32 38 31 29 30 20 13 23 33 38 39 35 40 49 37 22 20 21 21 21 16 14 13 10 10 9 6 6 6 4 3 4 5 4 5 5 2 2 5 6 7 10 13 15 19 22 24 22 26 44 55 52 53
33 33 26 25 27 19 15 23 35 49 47 46 73 97 100 100 92 78 63 44 26 19 20 24 34 41 36 43 79 106 89 51 26 19 36 66 66 41 33 33 21 12 16 21 26 37 41 39 54 58 36 22 22 18 18 17 13 14 14 10 10 9 6 7 6 4 5 3 5 16 20 17 16 11 5 6 10 14 18 22 24 26 25 30 44 53 52 53
40 36 28 32 33 19 22 39 45 51 60 71 90 101 100 101 102 100 93 76 61 43 24 21 33 46 53 53 65 90 91 67 38 19 45 93 86 45 33 32 24 18 16 18 23 39 48 36 49 73 51 20 20 19 17 21 16 14 16 13 10 9 7 7 6 5 6 3 4 15 29 38 33 15 3 4 8 15 21 23 27 28 26 31 44 54 55 55
46 39 33 40 34 21 36 51 42 41 48 50 62 74 79 82 84 93 97 91 90 84 56 27 21 41 68 72 76 93 86 64 57 51 68 101 81 38 28 25 22 24 20 20 28 41 50 37 44 75 61 21 16 23 20 23 23 17 17 17 13 10 8 7 7 6 5 5 4 6 22 37 26 6 4 5 4 14 23 24 28 31 30 33 42 54 58 56
54 44 38 48 37 26 48 53 34 32 33 28 32 36 40 46 50 60 70 72 78 88 86 65 33 27 63 89 94 102 93 66 60 76 96 99 59 21 22 24 22 29 28 28 41 54 57 44 41 67 75 45 24 26 26 24 26 22 18 18 15 12 11 8 7 9 4 5 6 2 13 26 15 2 6 6 3 12 21 24 27 31 34 37 42 52 55 52
60 48 45 55 41 33 48 44 32 37 31 23 27 26 27 33 34 36 43 55 66 70 81 93 70 32 39 75 93 102 102 75 63 87 106 87 43 15 19 25 25 31 32 32 44 53 54 49 43 56 81 76 45 32 31 25 26 24 17 18 17 13 14 11 9 10 6 6 7 2 9 18 11 6 8 5 4 10 16 22 28 30 35 40 44 45 40 39
63 55 58 61 46 44 49 39 38 41 27 25 34 32 31 34 36 36 38 51 63 60 64 85 90 60 37 53 78 95 102 85 76 98 105 75 38 18 18 23 24 28 30 31 37 37 37 47 49 49 69 77 51 31 27 22 23 23 17 17 18 15 15 13 11 10 8 8 6 5 17 20 8 6 8 4 4 6 10 18 23 27 32 34 34 30 26 31
69 61 64 67 59 52 45 39 44 38 24 30 38 38 40 42 41 40 40 44 45 45 53 64 74 75 62 57 62 76 94 97 91 99 104 85 50 23 21 25 23 24 27 32 39 37 35 45 49 44 55 67 57 43 38 31 24 22 19 17 17 18 17 15 14 12 9 9 6 8 21 20 6 4 7 5 5 5 6 12 17 23 28 27 24 21 24 32
79 69 65 72 72 55 40 46 50 36 28 34 38 43 50 50 48 45 45 49 43 40 47 50 54 66 76 79 69 63 78 97 102 99 100 96 61 23 21 27 21 24 34 42 47 45 45 51 47 42 49 62 63 54 44 36 27 23 23 21 17 18 19 17 16 14 11 11 7 7 13 11 6 6 6 6 7 5 3 7 11 15 19 21 22 25 29 34
87 82 73 77 80 60 42 46 44 32 34 38 37 46 51 50 53 50 47 54 57 55 50 46 49 57 72 87 78 62 68 87 102 101 97 101 75 31 26 37 29 27 40 50 52 47 50 56 52 49 52 56 57 49 38 33 32 29 26 24 22 19 19 19 17 15 13 11 9 8 8 7 7 6 5 6 8 5 4 5 6 8 12 14 18 24 29 35
92 92 86 87 90 73 48 44 41 35 42 46 43 46 49 51 57 54 50 58 74 85 79 62 52 52 71 91 84 70 74 86 98 100 97 103 85 49 47 60 52 46 51 54 52 45 46 57 62 61 59 57 54 48 41 36 34 32 28 28 28 23 19 19 18 17 16 13 11 9 8 8 8 7 6 7 8 6 4 4 4 5 7 10 13 17 22 30
95 95 93 95 100 84 56 50 54 49 48 50 47 47 50 55 61 58 53 57 72 92 99 86 65 57 73 94 95 86 81 82 93 98 99 105 92 73 74 70 51 46 53 52 49 46 50 63 71 65 58 57 56 50 45 39 33 33 33 33 35 33 26 21 18 18 18 15 13 11 8 9 9 8 8 8 8 7 5 4 4 4 4 5 7 8 12 18
98 95 94 97 103 94 67 58 67 67 57 52 50 52 56 57 58 58 57 58 65 79 96 95 81 75 83 89 95 99 90 82 85 86 93 106 98 86 84 63 33 30 41 43 44 52 61 65 63 59 53 51 54 52 48 42 36 37 36 33 33 35 34 29 23 20 19 17 16 13 10 9 10 9 9 8 8 8 6 5 5 4 4 4 4 4 6 7
100 98 99 99 101 100 81 67 78 82 65 56 57 57 57 59 57 57 58 61 62 67 82 92 85 84 94 91 88 96 94 85 82 77 83 100 102 95 87 61 33 27 33 37 43 55 65 58 52 56 56 50 53 56 54 51 45 39 34 30 29 30 31 30 25 19 18 18 16 14 12 10 10 10 9 9 10 9 9 8 6 6 5 4 4 4 3 4
Wind_Speed
18 18 18 18 18 18 18 18 17 17 16 15 14 14 14 14 14 13 13 12 12 11 11 10 9 8 7 9 9 9 8 8 11 15 16 13 10 10 10 11 13 15 16 15 14 14 17 20 22 22 20 19 18 18 18 17 16 14 13 12 10 9 8 8 10 8 7 5 4 4 4 5 7 7 8 9 10 11 10 9 9 9 9 9 8 8 9 9
18 18 18 18 18 18 18 18 18 18 18 17 16 15 15 15 15 14 13 13 13 12 12 11 10 10 8 8 9 10 9 9 9 11 14 15 15 12 12 14 15 16 17 16 16 16 17 20 23 24 22 21 20 19 19 18 17 16 15 13 12 11 9 5 8 7 7 6 5 5 5 6 7 7 8 9 11 12 11 11 11 10 10 10 8 8 10 10
19 18 18 17 17 17 17 18 18 18 18 18 18 17 17 17 16 15 14 13 13 13 14 13 12 12 10 9 9 10 10 10 9 8 12 17 18 15 14 15 15 16 17 18 19 19 19 22 25 26 25 24 22 21 21 20 19 18 16 14 14 13 10 8 8 9 8 8 6 6 6 7 8 8 8 9 11 11 12 13 13 12 11 11 10 9 9 10
19 19 18 18 17 17 17 17 17 18 18 18 18 18 18 19 18 17 15 14 14 14 15 14 13 13 12 11 10 11 10 10 9 7 11 16 18 18 17 16 16 15 16 18 19 20 20 21 24 27 27 25 24 23 23 21 20 20 17 16 14 10 11 12 10 9 9 8 8 6 6 8 9 9 9 9 11 11 13 14 14 13 12 11 11 11 10 10
20 20 19 19 18 17 17 17 17 17 18 17 17 18 19 20 20 19 17 16 15 15 16 16 15 14 13 12 11 12 11 10 10 9 11 13 16 19 19 18 17 15 15 16 16 18 20 20 22 25 26 26 25 24 23 22 22 21 19 19 16 11 13 14 11 10 9 9 8 7 7 8 8 9 9 10 12 12 13 14 14 14 12 11 12 11 10 10
21 21 20 20 19 19 19 18 18 18 18 17 17 18 19 20 21 20 19 18 17 17 17 17 16 15 14 14 13 13 13 11 11 11 11 11 14 18 21 20 18 16 15 14 15 16 18 19 19 21 24 24 23 22 24 24 24 23 22 20 19 17 15 13 11 11 10 9 9 8 8 8 8 9 10 11 12 12 12 13 12 13 13 13 13 11 10 11
23 23 22 22 21 21 20 20 20 19 18 18 18 19 19 20 20 21 21 20 19 19 19 18 17 17 16 15 14 14 14 12 13 13 11 10 13 16 20 22 20 18 16 15 15 15 15 16 17 19 22 23 21 22 24 25 24 24 23 20 19 19 17 15 14 12 11 10 8 7 7 7 8 9 10 12 13 12 12 13 12 12 13 14 13 11 11 12
25 25 24 24 23 23 22 22 21 21 20 19 19 19 19 20 20 20 21 21 21 21 21 20 19 19 17 16 15 16 15 13 14 14 12 11 12 14 18 22 22 20 18 17 16 16 16 16 17 20 21 21 22 23 25 25 24 24 23 22 20 19 18 17 15 14 13 10 7 6 6 7 9 9 10 11 13 14 13 13 13 12 13 14 12 11 12 12
26 26 26 26 25 25 25 24 23 23 22 21 21 20 20 20 20 20 21 21 22 22 22 22 21 20 19 18 17 17 16 14 15 15 14 13 12 13 16 20 23 22 21 20 18 18 19 18 19 20 20 22 24 25 26 25 23 24 24 23 21 20 20 19 16 15 13 10 7 6 6 7 8 9 10 12 13 14 14 13 14 14 13 13 11 11 12 12
27 27 27 27 27 27 27 27 26 25 24 23 22 22 22 21 21 21 21 21 21 23 24 23 23 22 22 20 18 19 17 15 16 16 15 15 13 13 14 17 21 24 23 22 20 19 19 20 21 21 23 26 27 27 27 25 24 24 25 24 22 21 21 19 17 15 14 11 8 7 7 8 9 9 9 11 13 14 14 14 15 15 14 13 12 12 12 11
30 29 29 29 28 28 28 29 28 28 27 26 25 24 24 23 23 22 22 21 21 22 24 24 24 23 23 21 20 20 18 16 16 16 16 16 16 15 14 15 18 23 25 24 23 21 21 23 25 25 26 27 27 27 26 26 26 25 24 24 22 21 21 19 18 16 15 12 8 7 8 9 9 9 10 11 11 13 14 14 15 15 14 13 13 12 12 11
33 33 32 31 30 30 30 30 30 30 29 28 28 27 26 25 25 24 24 22 22 22 23 24 24 25 24 23 23 22 18 18 18 17 18 17 18 17 14 14 16 20 25 26 25 24 25 26 28 27 25 25 25 27 27 27 28 26 25 24 22 21 21 20 19 18 15 12 10 9 10 11 10 9 12 12 11 13 14 15 16 15 14 13 13 12 12 11
36 36 36 35 34 33 32 32 32 32 31 31 30 30 30 28 28 27 26 25 24 23 23 24 24 25 25 24 26 24 20 21 20 19 19 19 19 19 17 14 15 18 23 27 28 27 27 27 28 26 25 26 26 28 28 29 28 27 27 26 23 22 21 20 20 18 16 14 11 11 10 9 10 11 13 14 13 14 15 15 15 14 14 13 13 12 11 11
38 38 38 38 37 36 36 35 35 34 33 33 32 32 32 31 31 30 29 28 27 25 25 24 24 26 24 26 29 25 23 24 22 21 21 22 21 20 18 16 16 16 20 26 29 30 29 28 28 27 27 27 27 28 29 29 29 28 28 27 24 22 20 20 21 20 17 16 13 12 10 6 10 13 14 16 16 16 16 15 14 14 13 13 13 12 12 12
39 39 39 40 39 39 39 38 37 37 36 35 34 34 34 34 34 33 32 31 30 28 27 26 26 25 24 27 29 26 26 27 25 24 23 24 24 21 20 19 18 18 19 23 27 30 30 29 28 28 28 27 27 28 28 29 29 28 29 26 23 22 21 20 22 22 19 18 15 14 12 8 10 15 15 17 17 17 16 15 14 14 13 12 12 12 12 12
39 40 40 40 40 40 40 40 40 40 40 38 37 36 36 36 35 35 35 34 33 31 30 29 27 26 25 26 28 28 28 29 28 26 24 25 25 23 21 21 21 20 19 20 23 27 30 30 29 29 29 28 28 26 24 27 28 27 28 25 22 22 23 21 20 22 21 21 19 17 15 14 15 17 16 16 17 16 15 14 14 14 14 12 11 11 11 12
38 39 40 40 41 41 41 41 41 41 42 41 40 39 38 38 37 37 37 37 36 35 34 32 30 29 27 26 28 29 28 30 31 27 26 28 27 24 22 22 23 22 21 20 21 24 28 31 31 30 30 29 29 26 23 26 27 26 25 24 22 22 24 22 18 21 23 23 20 18 18 16 16 17 16 16 16 16 16 15 14 14 14 13 12 11 11 11
38 39 39 40 41 41 41 41 41 42 42 43 43 42 41 41 40 39 39 39 38 38 37 36 33 31 30 29 29 29 28 30 30 28 29 30 29 26 23 24 26 25 23 22 21 22 25 30 32 33 31 30 29 26 23 24 24 25 24 22 22 23 25 23 19 20 24 24 21 19 20 19 17 16 17 18 17 18 17 16 15 14 14 13 11 10 9 10
39 40 40 41 41 41 41 41 41 41 42 43 44 44 43 43 43 42 40 40 40 40 40 39 35 35 34 31 31 31 29 29 30 30 31 31 31 29 26 27 27 26 25 23 22 22 23 27 31 32 30 29 27 25 24 24 25 25 25 24 24 24 25 26 23 21 24 26 24 21 20 20 20 18 17 18 19 19 18 17 16 15 15 12 8 8 9 10
40 41 42 42 42 42 42 41 41 41 41 42 43 44 44 44 45 45 42 42 43 42 42 41 38 38 37 33 34 33 30 30 32 32 31 33 33 31 30 28 28 27 25 24 24 23 23 25 26 26 27 27 27 26 26 28 28 27 28 27 26 26 26 26 26 24 24 25 25 23 22 20 21 21 19 18 20 21 19 18 17 15 15 11 8 8 9 10
42 43 43 44 44 44 44 44 43 42 41 41 42 44 44 44 46 46 45 44 44 44 44 43 42 40 40 37 35 34 33 34 34 33 33 34 34 34 32 29 29 27 25 26 26 25 24 22 19 21 26 27 28 28 29 30 30 29 30 28 28 28 26 25 27 26 25 26 25 23 23 22 22 23 22 21 21 22 21 20 19 17 16 12 11 10 10 11
44 45 45 45 46 45 46 46 46 44 44 42 42 43 44 44 45 47 47 45 45 46 46 45 44 42 41 42 38 36 39 38 35 35 34 33 35 35 32 31 30 27 27 28 28 27 24 19 16 20 24 27 29 30 31 32 32 31 30 28 28 27 24 24 27 26 25 25 24 23 24 25 24 23 23 24 23 22 22 22 21 19 18 16 15 13 13 14
46 46 47 47 47 47 47 48 48 47 46 46 44 44 43 44 45 46 48 47 45 47 48 46 46 45 44 44 41 39 42 40 38 38 35 34 35 34 34 34 31 30 31 30 28 27 23 18 19 21 24 28 30 31 32 32 33 33 31 29 28 24 23 24 24 25 25 23 24 26 27 27 25 25 25 26 24 23 23 23 22 21 20 19 17 15 16 16
49 50 49 49 50 50 50 50 51 50 49 49 48 47 45 45 45 45 47 48 45 44 48 49 48 47 45 45 45 44 43 42 42 41 37 35 35 36 36 34 32 33 33 30 28 27 23 22 24 25 26 28 30 31 32 33 34 34 32 30 28 25 26 26 22 24 24 23 28 30 30 29 27 25 25 24 24 25 26 25 25 24 23 21 19 19 20 18
53 54 54 53 52 53 52 52 53 53 53 52 51 50 49 48 48 46 46 48 47 43 45 49 50 48 47 47 48 46 44 44 45 43 40 38 37 37 37 35 35 36 34 31 30 29 27 28 29 28 27 29 31 32 33 34 35 34 32 30 30 31 31 29 24 22 24 27 32 32 31 31 27 25 25 25 25 27 29 29 28 27 25 23 21 21 20 19
57 58 59 58 57 56 55 54 55 55 56 56 55 54 53 53 51 50 48 48 48 45 43 46 49 50 50 49 48 47 48 48 46 46 43 41 40 38 38 38 37 36 33 32 34 33 31 31 31 29 29 30 32 34 35 35 35 35 32 30 33 36 36 35 30 25 24 24 27 33 35 32 28 28 27 28 28 28 30 32 30 28 27 25 23 21 19 18
60 61 62 62 61 60 59 58 56 55 57 58 59 58 57 56 54 53 51 50 50 48 45 45 47 50 52 50 48 49 52 50 47 48 46 43 43 41 40 40 38 36 35 36 38 36 32 33 34 32 32 33 34 35 35 36 37 37 35 35 37 38 39 39 36 33 30 24 23 29 33 31 32 31 29 29 31 30 30 32 31 29 29 27 23 22 20 18
65 66 66 66 66 65 64 63 60 59 58 57 58 60 59 59 58 56 54 53 54 52 49 46 46 49 52 51 49 49 52 52 48 48 47 44 45 45 43 42 39 36 36 39 38 33 31 34 35 32 32 35 34 33 34 36 37 36 36 37 37 38 39 39 41 40 37 34 30 27 25 27 30 30 32 32 31 31 30 29 31 32 30 28 25 23 21 19
68 69 69 69 69 69 69 67 66 64 62 60 58 59 60 61 60 58 57 56 55 55 53 50 48 50 52 52 51 50 52 53 50 51 50 47 47 47 46 43 40 38 38 40 39 34 34 35 35 33 34 34 32 32 34 35 34 33 34 35 36 40 40 42 43 40 39 40 38 33 30 29 25 25 32 35 32 32 29 27 32 34 30 30 28 23 21 20
67 67 67 67 68 69 70 70 70 68 67 65 62 59 59 60 60 59 59 58 55 55 55 54 52 51 50 51 51 51 53 54 53 54 53 50 48 48 48 45 44 42 41 42 41 38 39 38 37 37 36 34 34 36 36 34 32 34 35 37 40 43 42 41 40 39 42 44 41 37 36 35 30 26 31 35 34 34 31 28 32 33 30 31 30 23 22 23
60 60 61 62 62 63 65 66 68 69 69 68 66 64 60 58 60 59 60 59 55 54 56 58 57 54 51 51 50 50 53 55 56 56 54 54 52 51 52 51 50 48 46 47 45 41 42 43 42 41 38 37 39 40 39 36 34 36 38 40 41 41 40 40 39 42 45 45 42 38 38 39 33 26 29 33 33 35 35 31 30 31 31 32 30 25 24 25
55 56 57 58 58 59 60 60 62 63 65 66 67 66 62 59 59 59 59 55 51 53 59 62 63 58 54 53 52 51 53 55 57 57 55 55 55 53 53 52 52 51 48 47 46 42 43 44 43 42 38 40 43 42 40 40 39 39 40 40 40 40 42 43 44 46 44 43 42 39 40 38 26 22 27 29 30 34 35 32 28 29 30 31 30 27 26 25
55 56 57 57 57 58 59 60 60 59 59 60 61 62 62 61 58 57 55 49 50 58 63 65 67 63 58 55 52 51 51 53 57 57 55 56 56 55 53 51 51 51 48 46 45 43 43 45 46 44 40 42 46 44 42 42 42 42 42 40 39 41 44 45 45 45 42 41 39 39 41 33 23 24 25 22 26 30 30 31 29 28 30 31 30 30 29 27
54 55 56 57 57 57 59 61 61 58 56 55 54 54 56 57 55 52 49 46 53 64 66 67 68 64 61 57 52 51 50 50 54 56 55 56 58 57 56 55 53 52 49 48 48 47 47 47 47 45 42 43 46 45 43 43 43 43 43 40 38 38 41 42 43 42 40 39 38 40 37 24 21 25 21 16 20 23 24 28 30 30 33 33 31 31 31 29
53 54 56 57 57 58 61 62 59 55 52 49 48 47 47 49 46 40 41 48 58 67 69 69 68 65 62 59 54 53 53 52 53 56 56 55 58 59 58 57 56 54 52 51 51 50 49 47 43 42 42 42 45 44 42 44 44 42 42 42 37 35 37 39 40 40 39 38 38 37 29 20 21 22 17 16 19 18 20 24 28 33 37 37 34 30 30 29
53 54 56 58 57 60 63 61 54 48 43 38 38 38 36 35 30 27 39 55 63 67 70 66 63 61 59 56 54 56 55 52 52 56 57 56 56 57 58 57 57 56 54 53 52 51 51 47 43 43 43 43 44 43 41 42 42 42 43 41 34 33 37 39 38 38 36 36 36 34 27 21 21 18 14 15 18 19 21 25 29 34 39 41 39 34 29 28
54 55 56 57 57 62 64 56 45 37 28 23 26 28 25 25 25 26 40 57 63 67 69 64 58 59 56 48 44 50 54 52 51 54 56 56 54 54 57 57 58 58 56 53 51 51 52 48 46 48 45 45 45 43 43 42 40 42 42 37 35 36 39 40 38 37 36 34 34 32 27 23 19 17 14 15 17 20 24 28 31 35 39 42 41 38 32 29
54 56 57 58 58 63 63 51 36 26 18 16 19 20 18 23 31 36 45 56 63 66 67 63 58 58 58 46 32 34 46 51 52 54 55 54 54 55 56 58 61 62 58 56 55 54 54 48 45 51 49 45 45 44 46 46 42 42 41 37 39 41 40 39 39 37 37 36 33 31 29 26 19 14 15 17 20 22 27 31 33 36 38 39 40 41 36 31
55 56 56 56 57 61 60 45 28 18 12 12 16 17 19 24 30 37 43 49 56 61 62 60 56 56 58 53 41 33 44 54 55 56 54 50 52 56 58 62 65 65 62 62 61 57 57 49 39 45 54 49 46 47 49 51 47 43 43 42 41 42 41 39 38 37 36 36 32 28 28 26 19 16 17 19 21 23 28 31 33 35 36 37 40 42 39 32
54 53 53 53 54 58 54 38 23 14 10 10 14 16 20 23 25 29 33 37 44 53 58 57 56 58 59 59 55 44 46 55 59 61 53 42 48 57 60 63 65 65 65 65 62 57 58 55 37 34 52 55 50 51 51 51 51 47 46 47 44 43 43 40 39 39 38 36 31 25 20 16 18 23 22 20 21 24 27 29 31 34 35 37 41 42 38 32
52 50 52 50 50 53 45 31 22 16 12 13 14 15 18 20 21 22 24 27 32 42 52 55 57 60 60 63 65 57 55 57 60 65 53 37 48 62 63 65 64 63 64 63 62 59 60 62 45 31 48 58 52 49 49 49 52 50 47 48 46 44 43 42 42 40 38 36 33 28 17 11 20 26 22 20 22 26 29 30 31 32 34 36 39 41 37 29
50 48 48 47 48 48 37 27 25 19 15 17 17 18 20 21 22 20 20 22 23 28 39 48 56 61 62 64 65 61 63 63 62 65 50 36 55 71 67 68 67 63 64 63 62 62 62 65 55 37 42 55 54 48 48 49 49 50 49 47 48 46 42 43 42 38 38 37 36 34 25 19 24 23 19 21 26 30 32 33 32 32 33 35 38 40 38 31
48 46 46 44 45 42 32 28 28 20 18 19 19 21 23 23 24 24 23 23 23 24 28 34 47 59 64 67 64 57 59 65 68 65 48 42 63 77 71 69 68 65 65 65 63 63 63 65 62 45 32 42 53 51 49 50 49 52 53 49 50 48 43 42 40 38 38 36 36 36 30 25 23 19 19 23 28 32 34 33 33 33 33 36 37 38 40 37
46 45 44 42 43 38 30 29 27 21 21 21 20 21 22 22 24 24 24 24 24 25 26 27 36 52 62 66 68 62 57 64 71 62 46 52 71 77 74 72 70 68 68 67 66 68 67 66 68 57 33 30 47 53 52 55 54 55 56 52 51 50 46 44 42 40 39 35 35 36 31 28 24 18 18 22 26 32 35 33 33 34 34 36 39 41 40 36
44 44 42 41 40 34 29 29 26 23 23 21 20 21 20 21 22 21 21 23 23 24 28 28 32 44 54 57 64 67 61 61 67 59 48 60 75 76 75 74 73 71 69 68 69 71 72 68 68 67 50 38 49 57 56 57 57 56 55 53 52 50 49 48 45 44 42 37 37 35 28 30 27 21 21 23 24 30 34 34 35 36 37 39 41 41 37 31
43 43 40 39 36 30 28 27 24 23 23 20 19 20 19 19 20 19 19 20 21 23 27 30 33 39 45 48 54 61 61 59 60 58 56 63 73 78 77 75 74 71 67 68 69 70 72 70 68 70 62 49 50 54 54 54 57 57 55 55 54 51 50 50 48 47 45 40 41 36 30 33 33 26 25 22 22 28 33 36 38 38 39 41 40 38 34 32
42 41 40 37 33 29 28 25 22 22 22 20 19 19 19 20 20 18 17 18 19 20 24 29 33 37 40 44 46 50 57 58 53 52 59 66 72 79 79 74 73 71 66 67 70 69 70 70 69 69 67 59 52 55 58 58 58 57 55 56 55 52 51 52 51 50 47 44 43 40 36 37 35 30 29 24 23 29 33 36 39 40 42 43 40 36 34 34
41 40 40 38 33 30 27 23 21 22 21 20 20 19 19 20 20 18 16 15 15 16 19 24 31 37 40 42 45 45 50 56 53 49 57 67 73 77 77 74 74 72 69 68 71 71 70 69 67 67 68 67 62 62 65 63 58 57 56 55 55 54 53 52 52 50 48 47 44 42 41 39 33 30 32 27 25 29 32 35 39 41 42 41 38 37 37 36
41 38 39 39 34 29 26 23 21 20 19 20 21 21 21 20 20 18 16 13 11 11 14 19 26 36 40 40 43 44 45 53 58 55 55 63 74 76 71 71 75 74 72 71 71 72 70 67 65 65 67 69 68 67 67 65 62 61 58 55 54 55 55 53 51 50 48 48 46 44 43 40 35 33 32 29 28 31 34 37 39 41 41 40 40 40 39 38
41 37 36 38 34 29 26 22 19 18 18 19 20 21 21 20 19 18 17 14 13 12 13 16 21 31 38 39 41 44 46 51 58 61 58 59 71 77 70 71 78 78 74 72 71 70 68 65 65 68 69 70 70 70 69 68 66 62 58 55 53 53 53 52 51 50 49 48 47 47 45 41 39 37 34 33 32 33 34 36 37 39 39 40 41 41 41 41
41 37 35 35 34 29 25 21 18 17 17 18 19 20 20 19 19 19 17 15 14 14 14 15 17 25 32 37 40 43 46 50 55 62 63 60 67 76 74 75 80 79 75 73 71 70 68 68 69 71 72 72 71 71 70 69 67 63 61 60 58 55 52 51 51 52 51 50 49 48 47 45 43 40 36 34 33 32 31 30 32 34 35 36 37 38 40 41
40 38 36 35 34 29 24 20 18 16 16 17 18 19 18 18 18 19 17 15 14 14 15 15 17 24 26 30 39 42 44 48 53 60 64 63 64 68 70 76 79 78 77 77 74 72 71 71 71 71 70 70 70 69 69 70 71 68 65 63 62 60 57 54 55 55 53 52 51 50 49 48 44 41 38 34 32 31 29 27 28 30 31 32 34 35 36 36
Wind_Direction
299 299 299 298 298 297 296 295 293 293 293 292 292 290 288 286 285 284 284 284 285 286 286 283 280 280 283 288 285 273 261 250 234 227 230 227 223 215 199 196 202 215 224 220 213 210 205 203 203 207 205 200 199 198 199 199 202 205 201 207 186 194 236 171 170 197 196 228 239 245 248 238 255 258 255 254 254 255 247 238 237 235 233 230 222 217 207 195
297 297 297 296 295 294 293 292 291 289 289 288 288 287 286 284 282 281 281 282 283 283 281 279 276 274 270 274 279 278 269 258 244 233 229 224 222 215 203 204 203 208 216 214 211 210 206 204 205 207 207 202 199 197 198 200 202 207 205 207 199 210 251 214 190 211 207 225 238 245 252 245 254 259 255 251 250 252 249 245 240 234 230 225 214 216 215 201
295 295 295 294 293 293 291 290 289 287 286 285 284 284 282 281 279 278 278 279 280 281 279 277 273 271 268 265 267 274 273 264 254 238 228 223 222 219 213 215 213 211 212 210 209 207 205 204 204 205 207 204 200 198 199 202 205 210 210 209 206 212 241 240 217 225 225 228 237 245 255 251 253 258 258 254 252 251 249 246 240 231 226 220 210 207 212 207
293 292 292 292 292 292 291 290 288 286 284 282 281 279 278 277 276 274 275 275 276 277 278 276 272 270 267 264 261 265 269 270 262 240 230 226 221 219 218 221 220 218 218 216 212 208 208 206 205 205 206 205 201 201 202 203 206 213 215 212 215 215 224 230 225 229 234 234 239 245 253 253 252 256 257 253 248 244 245 247 241 233 225 218 212 203 204 207
291 290 289 289 290 290 290 289 287 286 284 283 280 276 275 274 274 273 272 271 272 273 275 275 272 269 266 263 259 260 263 269 267 247 235 231 223 220 219 222 224 223 224 222 218 215 214 210 209 209 208 208 204 202 205 206 209 215 217 216 225 234 227 230 232 231 235 236 238 238 243 249 253 256 251 245 243 238 241 246 240 234 228 219 214 206 203 206
289 288 287 286 287 288 288 288 286 285 284 283 280 276 273 272 271 272 271 268 268 268 271 272 271 269 266 263 258 257 258 261 265 257 243 233 227 224 221 223 226 227 226 223 220 220 219 215 215 212 210 212 208 203 207 211 211 215 220 221 229 238 237 238 235 232 234 234 235 233 237 246 251 253 247 245 244 239 244 247 236 227 223 219 214 204 205 209
287 286 285 284 284 285 285 285 285 284 282 281 279 277 274 272 270 269 269 267 265 265 266 268 270 269 266 264 261 257 254 253 258 259 254 239 229 227 224 223 225 227 227 222 218 217 220 220 219 216 213 212 208 205 210 214 214 216 221 224 228 234 237 239 236 232 232 231 235 236 235 241 244 243 241 244 242 238 243 249 243 232 222 218 213 200 203 211
284 284 283 283 282 282 282 282 282 282 281 280 277 276 275 273 271 268 266 265 264 263 262 264 265 267 266 263 262 261 256 250 250 254 258 250 234 229 226 223 223 223 223 222 218 213 216 217 219 218 214 212 206 206 211 213 215 218 221 224 226 229 231 234 234 231 230 230 231 235 236 238 244 244 240 240 239 238 240 244 245 240 226 217 213 204 205 212
282 281 280 280 280 280 280 279 279 279 278 278 276 275 274 273 272 269 266 263 261 261 260 261 261 262 264 262 261 262 260 252 249 248 251 253 243 231 228 225 223 222 220 221 218 212 210 210 215 217 213 213 208 207 211 211 214 219 221 221 220 222 225 228 230 229 227 225 225 235 236 235 244 245 242 241 238 239 240 237 238 241 235 226 220 212 211 213
282 281 279 278 277 276 276 276 276 276 276 275 275 274 273 273 272 270 268 264 260 259 258 258 258 259 260 260 260 260 260 256 250 244 243 249 249 238 231 227 224 222 221 220 219 216 211 209 213 214 213 213 210 209 211 209 213 219 222 222 217 217 220 223 226 226 225 221 220 231 230 228 236 237 239 243 239 237 238 233 234 239 238 232 224 214 213 211
283 282 280 278 276 275 274 273 272 272 272 272 272 272 272 272 272 270 269 266 262 258 257 256 255 256 257 258 259 257 257 257 252 245 241 242 248 246 236 230 224 222 222 220 220 218 214 212 213 214 214 214 212 212 212 211 214 218 222 225 219 214 216 219 222 224 225 221 214 219 223 225 227 227 229 235 233 232 234 232 231 235 234 231 225 217 212 208
284 282 281 279 278 276 274 272 270 269 268 268 268 269 269 269 270 270 269 267 264 261 258 255 253 253 253 255 256 254 252 254 253 247 242 238 242 246 240 233 227 222 221 221 220 218 216 214 215 216 216 217 215 215 214 214 217 218 222 225 218 211 212 216 219 221 222 222 215 211 219 228 228 225 229 230 230 230 229 228 229 230 230 229 226 219 210 208
283 282 281 279 278 277 275 273 271 269 267 265 264 264 265 266 267 267 267 266 265 263 260 257 254 251 250 251 252 252 250 251 251 248 244 238 237 241 240 234 229 225 221 220 221 220 218 217 218 217 216 217 216 217 216 216 219 220 222 225 218 209 209 211 216 219 219 218 215 210 214 229 229 222 229 233 229 229 227 225 227 229 227 226 222 214 208 209
282 281 279 278 277 276 275 274 273 271 268 265 263 261 261 262 263 264 264 264 264 262 261 260 256 253 249 247 249 251 251 250 249 247 245 242 238 237 239 236 231 227 222 221 222 222 221 221 221 218 217 217 216 220 219 218 222 221 222 226 220 211 206 208 215 217 216 215 210 208 206 217 240 231 225 230 231 230 231 227 226 226 223 220 215 207 206 211
281 280 279 278 276 275 274 273 272 271 270 268 265 262 260 259 259 260 261 261 262 261 260 259 257 255 251 248 249 249 249 249 247 245 244 244 242 236 235 234 232 229 225 224 223 224 223 223 224 222 220 219 218 221 219 218 222 222 222 225 222 214 209 211 217 215 213 213 209 207 196 184 232 239 225 228 234 235 234 229 226 224 219 215 214 207 203 208
281 280 278 277 276 274 273 272 271 270 269 268 267 264 262 259 257 257 257 258 259 259 258 257 257 256 252 251 251 247 245 247 246 243 242 244 244 239 233 232 233 231 228 228 226 226 225 224 225 226 225 221 221 225 220 219 223 222 223 225 221 216 214 217 219 214 211 212 210 208 201 192 216 231 226 229 236 235 233 230 227 224 218 210 208 208 202 201
284 282 280 277 276 274 273 271 269 268 267 267 266 265 263 261 259 257 255 256 256 256 257 256 255 255 253 251 251 248 244 245 246 243 241 243 243 240 233 230 232 231 228 228 227 226 225 223 223 225 227 224 224 226 219 219 222 222 225 225 221 217 217 219 216 210 210 211 210 207 206 204 217 231 230 231 234 234 233 232 230 225 222 216 207 206 201 195
288 286 283 281 278 276 274 272 270 268 266 265 264 263 262 261 260 258 256 255 254 254 255 254 253 253 252 249 250 251 246 244 245 243 240 242 243 241 234 230 231 231 228 227 226 225 225 224 223 224 225 225 226 226 221 222 223 222 226 226 224 221 218 219 217 213 211 211 212 211 212 212 218 229 232 232 233 232 232 232 232 230 229 226 214 204 200 195
290 289 287 284 281 279 277 275 272 270 267 265 263 261 260 259 259 257 256 256 254 253 253 252 252 252 250 248 249 250 247 246 245 242 239 241 242 240 235 232 232 232 229 227 226 226 224 224 225 225 226 226 226 226 225 226 223 222 227 228 226 224 221 219 217 217 214 213 215 214 216 220 221 225 228 231 231 229 231 230 229 233 232 224 214 207 202 200
290 289 287 286 284 282 280 277 275 272 270 267 265 262 259 258 257 256 254 254 254 253 252 251 250 250 250 247 246 248 248 246 244 241 239 238 240 240 236 233 233 233 229 228 228 227 224 223 225 227 230 229 227 227 225 225 224 221 224 228 228 227 227 225 218 217 215 213 216 218 219 225 227 228 231 233 232 229 231 230 227 231 232 219 207 216 217 208
289 287 286 286 285 284 282 280 277 275 272 270 268 266 262 259 257 255 252 251 252 252 251 251 248 248 250 248 245 246 246 244 244 243 239 238 239 239 237 235 234 234 232 231 230 228 225 223 223 224 228 228 225 226 224 224 225 223 223 224 226 226 228 231 226 222 221 215 216 221 221 224 226 230 234 234 231 228 228 231 229 229 230 218 201 208 225 220
287 285 284 283 283 283 282 281 279 277 274 272 269 268 266 263 259 256 252 250 251 251 249 250 249 246 247 247 244 243 244 243 243 243 240 238 239 240 239 237 236 234 233 232 229 228 226 223 225 223 223 224 222 223 222 223 224 224 225 223 224 225 223 231 232 226 221 215 217 225 225 227 229 231 231 226 225 225 227 232 231 229 230 220 208 206 221 226
286 285 283 282 280 279 279 278 278 276 275 273 271 269 268 266 263 260 255 250 248 250 249 248 248 246 245 246 244 242 243 243 242 242 241 239 239 240 239 237 237 235 233 232 229 228 225 224 228 224 220 220 219 220 221 222 222 222 223 220 221 223 221 227 236 239 230 214 218 227 228 229 231 232 230 226 227 228 228 231 228 228 231 223 214 214 222 227
286 285 283 282 280 278 276 275 275 274 273 272 271 270 268 267 266 263 259 253 247 248 250 247 246 245 245 244 242 240 241 242 241 240 240 239 238 239 238 237 236 235 233 232 232 230 224 222 224 220 215 216 217 218 218 219 221 220 217 215 214 215 220 220 226 244 241 218 218 227 230 230 230 234 235 231 231 229 228 230 227 229 236 231 219 218 221 222
286 285 284 282 280 279 276 274 272 271 270 268 267 268 268 267 266 264 262 259 251 247 249 248 246 244 243 242 241 240 240 241 240 239 238 238 238 237 238 236 234 235 233 232 232 229 223 221 221 217 213 214 215 214 215 217 219 220 215 211 211 211 216 214 211 229 235 221 218 224 232 233 233 237 236 231 229 227 228 230 228 230 236 238 232 228 224 216
288 287 285 283 281 280 278 275 272 270 269 267 265 264 264 264 265 265 263 261 257 250 248 247 247 245 242 241 241 240 239 238 239 240 237 235 236 236 236 235 234 234 233 231 231 227 222 221 220 217 215 215 215 213 213 215 218 220 215 211 213 214 215 213 209 219 232 229 220 222 229 231 231 232 231 231 229 228 232 231 229 231 232 237 240 239 235 223
292 291 289 286 283 281 280 277 274 271 268 267 265 263 262 261 261 262 261 261 259 253 249 246 245 245 243 240 239 239 239 237 236 239 237 233 235 236 235 235 234 232 232 231 230 226 222 223 220 215 215 217 217 216 213 213 216 218 214 212 214 216 217 216 214 215 224 231 225 225 231 233 235 233 228 230 229 228 234 230 226 230 230 232 235 237 239 233
299 297 295 293 289 285 283 280 277 273 269 266 264 262 261 259 258 258 258 257 257 255 251 247 244 243 243 240 237 237 238 237 235 238 238 234 233 234 234 235 234 232 232 233 232 228 225 226 225 218 218 221 220 219 218 217 219 219 215 214 214 217 219 221 222 220 224 232 231 226 230 235 236 230 226 228 226 227 232 226 223 228 230 232 231 230 236 238
303 301 300 298 296 292 287 283 280 277 273 269 265 261 260 258 257 256 254 253 254 255 253 250 245 241 241 240 237 234 236 237 234 234 235 232 231 232 232 233 233 231 231 233 231 227 225 226 226 221 219 222 221 221 223 223 223 222 218 215 216 219 219 220 224 224 228 234 232 225 225 233 231 214 220 228 227 231 235 226 224 228 231 232 227 221 229 235
307 306 304 302 300 296 292 287 283 279 275 272 268 263 259 256 255 254 252 250 250 251 251 250 246 242 239 239 238 234 233 235 233 232 232 231 229 230 230 229 230 228 227 230 229 225 224 223 224 221 216 218 220 219 222 221 219 220 217 214 217 219 218 221 224 224 228 233 232 226 224 232 233 216 218 229 231 237 240 231 228 231 232 230 225 216 220 225
315 313 311 308 306 302 298 293 287 282 278 273 269 266 262 257 253 251 250 249 247 246 246 246 245 241 238 237 236 233 231 232 233 232 231 230 228 227 227 225 226 225 223 226 226 222 224 223 222 220 214 214 219 219 219 219 217 217 217 216 218 219 218 220 222 223 229 234 234 230 227 231 237 230 225 230 232 236 241 239 231 231 232 229 227 219 215 220
324 322 319 315 312 308 304 299 293 288 283 277 271 267 263 259 253 248 247 245 241 239 240 242 242 240 237 235 234 232 230 229 231 231 229 229 228 227 228 227 227 227 225 228 228 223 226 227 225 223 215 215 221 220 218 218 218 218 218 218 217 217 217 218 221 224 231 236 235 233 234 236 241 244 238 234 234 235 241 245 234 226 231 231 228 222 217 219
330 329 326 322 318 314 309 305 299 294 289 283 277 270 265 261 255 248 244 238 234 235 236 238 240 240 238 236 235 234 232 229 230 231 229 228 227 227 228 229 229 229 229 231 231 227 227 228 227 224 217 218 223 221 218 218 219 220 221 220 217 215 217 219 222 227 233 238 238 236 238 242 247 250 247 241 240 241 242 247 241 227 229 233 228 223 220 219
332 334 332 327 321 317 313 309 304 299 293 287 281 275 267 262 255 248 240 230 228 231 232 234 237 238 237 235 234 233 232 229 228 229 229 227 226 225 224 224 225 225 225 227 229 228 227 227 227 225 219 219 226 225 221 221 221 221 223 224 221 218 219 221 224 229 234 237 240 240 239 246 251 250 252 244 239 240 233 238 241 230 225 232 231 222 219 222
331 332 332 328 323 320 318 313 307 300 293 287 280 275 269 263 255 245 234 226 226 228 229 231 233 234 234 233 231 230 229 228 226 227 228 226 225 225 224 223 223 223 221 223 226 227 228 229 230 230 225 222 228 229 225 225 224 223 225 226 224 221 222 225 226 230 234 236 239 244 245 248 250 249 248 238 235 238 227 225 234 231 227 233 237 228 221 224
327 327 328 327 324 324 324 318 309 300 290 283 276 270 265 259 249 235 229 226 226 227 226 226 227 228 230 230 228 228 228 227 226 226 227 226 224 224 224 223 222 222 221 220 223 226 228 227 227 230 226 221 225 229 229 229 230 228 229 229 228 223 224 226 227 229 233 234 235 241 247 246 243 244 237 227 227 230 222 216 222 226 226 230 235 234 227 225
323 323 324 325 327 330 331 324 314 301 286 275 271 265 260 248 229 222 228 225 222 224 222 218 217 220 222 220 223 228 227 224 225 225 226 226 224 222 222 222 221 221 220 219 220 224 227 226 226 227 224 220 221 224 229 229 230 232 232 232 230 226 225 226 227 230 234 235 234 236 244 246 240 240 235 217 211 210 209 212 217 222 224 226 230 235 232 226
322 323 324 327 332 338 337 332 321 304 281 260 258 258 255 243 229 225 229 225 220 220 219 212 210 213 212 202 201 222 223 217 219 222 222 224 224 220 218 219 219 218 217 216 216 219 223 223 225 227 223 221 219 218 224 226 223 228 231 230 230 228 228 228 226 228 232 234 236 234 240 244 238 235 231 211 204 207 207 211 216 221 225 224 226 233 236 230
324 326 327 330 336 341 342 338 329 313 286 250 240 241 239 239 238 236 237 233 225 222 218 210 205 207 205 193 183 201 216 212 211 216 217 220 223 221 217 217 217 214 213 215 214 215 220 219 221 229 226 222 219 216 221 225 220 221 226 227 227 227 228 230 228 228 230 232 235 236 239 242 237 234 229 210 203 208 210 213 218 221 224 222 222 229 234 233
328 329 330 332 337 343 345 343 339 330 302 253 238 245 246 246 250 249 249 242 231 227 222 211 203 203 201 192 183 190 209 209 207 210 210 214 221 220 217 217 217 215 212 215 214 212 218 217 211 227 230 222 218 216 219 225 223 219 222 224 222 221 222 226 226 225 228 230 232 232 236 245 244 237 228 212 201 203 208 213 217 220 220 218 220 226 232 231
331 331 333 335 339 345 348 349 346 336 306 273 256 260 261 258 256 255 255 247 235 232 227 215 206 202 199 194 188 191 201 202 203 206 203 207 219 218 216 216 215 215 213 214 213 210 215 215 205 218 231 221 215 216 217 225 227 223 224 226 224 221 219 221 223 220 221 224 227 224 214 225 240 231 219 213 205 201 208 213 215 219 221 217 219 225 230 230
333 334 336 337 340 345 351 350 342 330 306 291 278 273 272 268 263 259 258 251 240 237 232 220 210 204 199 194 192 195 200 196 195 200 197 202 215 215 214 215 213 212 211 212 213 211 214 215 206 210 229 222 215 216 215 220 228 227 225 226 228 226 222 222 224 222 220 219 222 222 210 215 230 218 203 210 206 199 206 212 213 215 218 217 217 223 229 232
335 336 338 340 341 347 352 348 341 332 315 305 293 283 278 273 267 262 261 258 248 242 236 223 212 208 202 195 193 196 199 195 191 192 193 203 212 212 213 214 213 211 209 209 211 212 214 216 210 208 221 224 220 220 216 215 223 227 224 223 226 226 225 226 227 227 225 220 221 222 215 217 219 199 193 207 204 201 205 210 213 213 215 216 216 219 226 229
336 337 340 342 343 347 349 346 343 338 326 317 306 298 290 281 274 264 259 258 251 244 238 225 213 210 206 201 197 196 197 195 191 188 195 207 210 212 213 212 212 211 208 207 209 210 211 213 212 209 207 215 220 222 219 214 217 225 224 222 224 224 225 226 226 228 228 224 224 225 223 221 208 183 192 204 198 200 204 207 212 212 213 215 215 219 226 227
338 339 342 345 345 346 345 344 344 341 336 330 321 316 308 296 287 276 264 258 252 244 239 231 216 209 209 207 204 201 198 194 191 188 195 206 209 211 212 212 213 211 208 206 208 209 210 210 211 211 208 211 218 222 221 217 217 222 225 223 223 223 224 225 224 225 225 222 222 223 222 223 211 185 186 194 193 200 204 205 209 212 214 217 221 226 231 229
341 340 343 346 345 344 343 344 345 342 340 339 333 328 322 312 303 296 287 274 260 247 240 235 222 211 210 211 209 207 202 196 192 192 196 203 207 209 210 212 214 212 209 208 209 210 210 210 210 210 209 212 219 223 224 222 220 221 224 226 224 221 223 225 224 224 223 221 221 218 214 219 218 198 185 189 192 197 202 206 210 212 215 222 229 232 231 228
343 341 343 346 344 342 344 344 341 341 342 341 339 333 329 324 317 310 302 291 277 260 246 237 225 215 212 212 210 209 205 199 196 198 199 203 207 207 208 210 212 212 210 209 211 211 211 212 211 209 208 209 213 219 222 223 221 220 223 227 226 223 222 224 224 223 222 220 220 218 215 219 219 199 187 195 200 198 201 207 211 214 218 223 229 230 229 228
344 342 342 346 345 341 342 343 338 339 341 339 338 336 332 330 325 320 314 305 295 279 260 244 228 217 213 212 210 207 205 202 201 202 201 204 207 206 206 209 210 211 210 209 210 211 211 212 212 211 211 210 212 216 220 222 221 220 221 224 227 227 224 224 225 225 224 222 220 219 218 221 220 201 192 202 207 201 200 204 210 216 220 222 225 225 226 228
344 343 342 344 346 341 339 341 338 337 338 337 338 337 334 332 327 323 322 309 289 280 270 255 234 219 213 211 209 206 203 202 204 204 201 203 207 207 206 208 208 209 210 209 209 209 209 210 211 212 212 213 215 217 218 220 220 219 220 220 224 228 227 226 226 226 226 224 222 222 219 218 219 210 201 202 206 205 201 204 212 217 216 218 221 223 223 224
342 344 343 342 344 342 338 338 335 334 337 337 337 338 336 335 329 323 324 309 275 263 270 261 235 218 213 211 208 206 203 203 206 206 202 202 206 207 206 207 207 207 208 209 209 208 209 210 210 211 211 211 215 218 219 221 221 219 219 218 219 224 227 227 227 227 227 225 223 224 222 218 218 216 208 202 207 213 208 206 213 217 217 220 222 221 221 222
340 343 344 342 342 341 339 337 331 330 336 334 334 338 337 335 333 327 323 314 286 264 267 265 232 211 212 214 211 206 203 205 207 207 205 204 205 207 208 208 207 206 206 208 208 208 210 210 209 210 210 209 212 216 219 222 223 221 220 219 219 220 222 224 225 226 226 226 224 223 223 222 219 219 214 205 208 219 218 210 212 216 219 225 225 224 225 226
339 341 343 342 340 339 339 338 331 325 329 329 327 333 336 334 334 332 325 319 306 278 267 264 231 210 211 215 213 209 205 205 208 208 208 208 207 206 209 210 208 207 206 207 207 207 209 210 209 211 211 210 211 215 217 222 224 223 221 221 222 222 221 222 224 224 224 224 223 222 222 223 220 218 218 210 205 212 217 216 215 215 217 220 224 227 230 231